| time (UTC) | temp C | wind direction | speed KPH | gust KPH | rain 1hr cm | rain 24hr cm | rain mn cm | humidity % | barometer mb |
| 20260502163110 | 14 | 229 | 16.1 | 27.4 | 0.00 | 0.00 | 0.00 | 41 | 1017.3 |
| 20260502161601 | 13 | 251 | 12.9 | 32.2 | 0.00 | 0.00 | 0.00 | 41 | 1017.5 |
| 20260502160104 | 13 | 258 | 16.1 | 27.4 | 0.00 | 0.00 | 0.00 | 41 | 1017.9 |
| 20260502151613 | 12 | 253 | 14.5 | 24.1 | 0.00 | 0.00 | 0.00 | 48 | 1018.5 |
| 20260502150104 | 11 | 235 | 17.7 | 25.7 | 0.00 | 0.00 | 0.00 | 48 | 1018.7 |
| 20260502130108 | 5 | 244 | 11.3 | 16.1 | 0.00 | 0.00 | 0.00 | 73 | 1019.3 |
| 20260502123106 | 2 | 238 | 8.0 | 12.9 | 0.00 | 0.00 | 0.00 | 79 | 1019.2 |
| 20260502121601 | 1 | 216 | 4.8 | 8.0 | 0.00 | 0.00 | 0.00 | 83 | 1019.2 |
| 20260502120104 | 0 | 30 | 1.6 | 4.8 | 0.00 | 0.00 | 0.00 | 84 | 1019.3 |
| 20260502114604 | 0 | 247 | 1.6 | 6.4 | 0.00 | 0.00 | 0.00 | 83 | 1019.2 |
| 20260502113101 | 0 | 230 | 3.2 | 6.4 | 0.00 | 0.00 | 0.00 | 83 | 1019.2 |
| 20260502111558 | -1 | 230 | 4.8 | 6.4 | 0.00 | 0.00 | 0.00 | 83 | 1019.2 |
| 20260502110105 | 0 | 243 | 4.8 | 6.4 | 0.00 | 0.00 | 0.00 | 82 | 1019.3 |
| 20260502104559 | 0 | 243 | 4.8 | 6.4 | 0.00 | 0.00 | 0.00 | 82 | 1019.3 |
| 20260502103102 | 0 | 243 | 4.8 | 6.4 | 0.00 | 0.00 | 0.00 | 82 | 1019.3 |
| 20260502101606 | 0 | 243 | 4.8 | 8.0 | 0.00 | 0.00 | 0.00 | 81 | 1019.3 |
| 20260502070101 | 2 | 242 | 4.8 | 8.0 | 0.00 | 0.00 | 0.00 | 72 | 1019.3 |
| 20260502064559 | 2 | 245 | 4.8 | 8.0 | 0.00 | 0.00 | 0.00 | 74 | 1019.5 |
| 20260502063100 | 1 | 244 | 0.0 | 4.8 | 0.00 | 0.00 | 0.00 | 73 | 1019.5 |
| 20260502061558 | 2 | 244 | 6.4 | 8.0 | 0.00 | 0.00 | 0.00 | 72 | 1019.5 |
| 20260502060104 | 2 | 246 | 4.8 | 8.0 | 0.00 | 0.00 | 0.00 | 72 | 1019.7 |
| 20260502054600 | 2 | 248 | 9.7 | 12.9 | 0.00 | 0.00 | 0.00 | 70 | 1019.6 |
| 20260502053105 | 2 | 317 | 0.0 | 4.8 | 0.00 | 0.00 | 0.00 | 70 | 1019.6 |
| 20260502051601 | 3 | 317 | 1.6 | 4.8 | 0.00 | 0.00 | 0.00 | 68 | 1019.5 |
| 20260502050058 | 3 | 287 | 1.6 | 4.8 | 0.00 | 0.00 | 0.00 | 67 | 1019.4 |
| 20260502044558 | 3 | 321 | 1.6 | 3.2 | 0.00 | 0.00 | 0.00 | 66 | 1019.4 |
| 20260502043108 | 3 | 321 | 3.2 | 4.8 | 0.00 | 0.00 | 0.00 | 67 | 1019.3 |
| 20260502041559 | 3 | 322 | 3.2 | 4.8 | 0.00 | 0.00 | 0.00 | 63 | 1019.3 |
| 20260502040100 | 3 | 322 | 1.6 | 3.2 | 0.00 | 0.00 | 0.00 | 63 | 1019.3 |
| 20260502034559 | 3 | 0 | 0.0 | 1.6 | 0.00 | 0.00 | 0.00 | 65 | 1019.4 |
| 20260502033100 | 3 | 323 | 1.6 | 3.2 | 0.00 | 0.00 | 0.00 | 65 | 1019.5 |
| 20260502031602 | 4 | 323 | 1.6 | 3.2 | 0.00 | 0.00 | 0.00 | 62 | 1019.4 |
| 20260502030105 | 4 | 139 | 1.6 | 4.8 | 0.00 | 0.00 | 0.00 | 62 | 1019.4 |
| 20260502024559 | 4 | 0 | 0.0 | 0.0 | 0.00 | 0.00 | 0.00 | 60 | 1019.4 |
| 20260502023100 | 5 | 0 | 0.0 | 0.0 | 0.00 | 0.00 | 0.00 | 60 | 1019.4 |
| 20260502021607 | 6 | 0 | 0.0 | 3.2 | 0.00 | 0.00 | 0.00 | 58 | 1019.5 |
| 20260502014604 | 8 | 0 | 0.0 | 0.0 | 0.00 | 0.05 | 0.00 | 49 | 1018.9 |
| 20260502013102 | 8 | 0 | 0.0 | 1.6 | 0.00 | 0.05 | 0.00 | 45 | 1018.9 |
| 20260502011600 | 8 | 0 | 0.0 | 8.0 | 0.00 | 0.05 | 0.00 | 47 | 1018.8 |
| 20260502004606 | 10 | 360 | 4.8 | 12.9 | 0.00 | 0.05 | 0.00 | 43 | 1018.7 |
| 20260502003100 | 10 | 281 | 8.0 | 16.1 | 0.00 | 0.05 | 0.00 | 40 | 1018.7 |
| 20260502001558 | 11 | 299 | 16.1 | 22.5 | 0.00 | 0.05 | 0.00 | 39 | 1018.7 |
| 20260502000113 | 11 | 10 | 17.7 | 24.1 | 0.00 | 0.05 | 0.00 | 39 | 1018.6 |
| 20260501234606 | 11 | 333 | 14.5 | 22.5 | 0.00 | 0.05 | 0.00 | 40 | 1018.7 |
| 20260501233103 | 11 | 311 | 8.0 | 17.7 | 0.00 | 0.05 | 0.00 | 39 | 1018.8 |
| 20260501231600 | 11 | 320 | 9.7 | 22.5 | 0.00 | 0.05 | 0.00 | 41 | 1018.7 |
| 20260501230106 | 10 | 309 | 12.9 | 24.1 | 0.00 | 0.05 | 0.00 | 39 | 1018.8 |
| 20260501224603 | 10 | 317 | 14.5 | 25.7 | 0.00 | 0.05 | 0.00 | 38 | 1018.6 |
| 20260501223103 | 11 | 323 | 14.5 | 25.7 | 0.00 | 0.05 | 0.00 | 40 | 1018.7 |
| 20260501221603 | 10 | 320 | 9.7 | 25.7 | 0.00 | 0.05 | 0.00 | 42 | 1018.7 |
| 20260501214557 | 11 | 360 | 12.9 | 24.1 | 0.00 | 0.05 | 0.00 | 43 | 1018.8 |
| 20260501213105 | 10 | 13 | 6.4 | 22.5 | 0.00 | 0.05 | 0.00 | 43 | 1018.8 |
| 20260501211559 | 11 | 9 | 9.7 | 22.5 | 0.00 | 0.05 | 0.00 | 43 | 1018.8 |
| 20260501210059 | 10 | 338 | 8.0 | 24.1 | 0.00 | 0.05 | 0.00 | 42 | 1019.0 |
| 20260501204605 | 10 | 350 | 16.1 | 25.7 | 0.00 | 0.05 | 0.00 | 43 | 1019.1 |
| 20260501203100 | 11 | 11 | 8.0 | 25.7 | 0.00 | 0.05 | 0.00 | 43 | 1019.1 |
| 20260501201611 | 9 | 360 | 4.8 | 20.9 | 0.00 | 0.05 | 0.00 | 43 | 1019.1 |
| 20260501200059 | 9 | 9 | 12.9 | 22.5 | 0.00 | 0.05 | 0.00 | 43 | 1019.0 |
| 20260501194559 | 10 | 36 | 8.0 | 22.5 | 0.00 | 0.05 | 0.00 | 42 | 1019.2 |
| 20260501193101 | 9 | 338 | 17.7 | 24.1 | 0.00 | 0.05 | 0.00 | 44 | 1019.2 |
| 20260501191600 | 10 | 288 | 12.9 | 20.9 | 0.00 | 0.05 | 0.00 | 44 | 1019.1 |
| 20260501190058 | 10 | 360 | 11.3 | 27.4 | 0.00 | 0.05 | 0.00 | 46 | 1019.3 |
| 20260501184600 | 10 | 350 | 11.3 | 20.9 | 0.00 | 0.05 | 0.00 | 47 | 1019.2 |
| 20260501183059 | 9 | 23 | 11.3 | 27.4 | 0.00 | 0.05 | 0.00 | 50 | 1019.2 |
| 20260501181558 | 10 | 20 | 1.6 | 20.9 | 0.00 | 0.05 | 0.00 | 47 | 1019.4 |
| 20260501180057 | 8 | 350 | 11.3 | 25.7 | 0.00 | 0.05 | 0.00 | 47 | 1019.4 |